View from above orbital plane
|
View from above satellite
|
Ground track
|
The orbit data is extracted from the following two-line orbital elements,
1 19070U 88033A 18109.53194663 +.00000015 +00000-0 +13820-4 0 9999
2 19070 090.3625 284.2980 0191394 029.4150 029.2396 13.27426774451807
Epoch (UTC): | 19 April 2018 12:46:00 |
Eccentricity: | 0.0191394 |
inclination: | 90.3625° |
perigee height: | 1012 km |
apogee height: | 1300 km |
right ascension of ascending node: | 284.2980° |
argument of perigee: | 29.4150° |
revolutions per day: | 13.27426774 |
mean anomaly at epoch: | 29.2396° |
orbit number at epoch: | 45180 |
The dashed part of the orbit path shows where the satellite is in the earth's shadow,
|
|